| time (UTC) | temp F | wind direction | speed MPH | gust MPH | rain 1hr in | rain 24hr in | rain mn in | humidity % | barometer mb |
| 20260505120611 | 64 | 302 | 0.0 | 2.0 | 0.00 | 0.00 | 0.00 | 100 | |
| 20260505120111 | 64 | 305 | 0.0 | 2.0 | 0.00 | 0.00 | 0.00 | 100 | |
| 20260505115611 | 63 | 278 | 0.0 | 3.0 | 0.00 | 0.00 | 0.00 | 100 | |
| 20260505115111 | 63 | 324 | 1.0 | 3.0 | 0.00 | 0.00 | 0.00 | 100 | |
| 20260505114611 | 62 | 331 | 2.0 | 6.0 | 0.00 | 0.00 | 0.00 | 100 | |
| 20260505114111 | 62 | 303 | 5.0 | 7.0 | 0.00 | 0.00 | 0.00 | 100 | |
| 20260505113611 | 62 | 291 | 6.0 | 7.0 | 0.00 | 0.00 | 0.00 | 100 | |
| 20260505113111 | 63 | 307 | 4.0 | 9.0 | 0.00 | 0.00 | 0.00 | 100 | |
| 20260505112611 | 62 | 288 | 4.0 | 8.0 | 0.00 | 0.00 | 0.00 | 100 | |
| 20260505112111 | 61 | 307 | 2.0 | 8.0 | 0.00 | 0.00 | 0.00 | 100 | |
| 20260505111611 | 62 | 282 | 3.0 | 10.0 | 0.00 | 0.00 | 0.00 | 100 | |
| 20260505111111 | 61 | 292 | 7.0 | 8.0 | 0.00 | 0.00 | 0.00 | 100 | |
| 20260505110611 | 61 | 295 | 7.0 | 9.0 | 0.00 | 0.00 | 0.00 | 100 | |
| 20260505110111 | 61 | 288 | 3.0 | 8.0 | 0.00 | 0.00 | 0.00 | 100 | |
| 20260505102111 | 61 | 292 | 4.0 | 9.0 | 0.00 | 0.02 | 0.00 | 100 | |
| 20260505101611 | 61 | 302 | 3.0 | 11.0 | 0.00 | 0.02 | 0.00 | 100 | |
| 20260505101111 | 61 | 298 | 6.0 | 9.0 | 0.00 | 0.02 | 0.00 | 100 | |
| 20260505100611 | 62 | 296 | 7.0 | 10.0 | 0.00 | 0.02 | 0.00 | 100 | |
| 20260505100111 | 62 | 291 | 4.0 | 11.0 | 0.00 | 0.02 | 0.00 | 100 | |
| 20260505095611 | 62 | 307 | 4.0 | 9.0 | 0.00 | 0.02 | 0.00 | 100 | |
| 20260505095111 | 63 | 296 | 5.0 | 11.0 | 0.00 | 0.02 | 0.00 | 100 | |
| 20260505094611 | 62 | 306 | 7.0 | 12.0 | 0.00 | 0.02 | 0.00 | 100 | |
| 20260505094111 | 61 | 299 | 7.0 | 10.0 | 0.00 | 0.02 | 0.00 | 100 | |
| 20260505093611 | 63 | 310 | 6.0 | 10.0 | 0.00 | 0.02 | 0.00 | 100 | |
| 20260505093111 | 63 | 288 | 5.0 | 12.0 | 0.00 | 0.22 | 0.00 | 100 | |
| 20260505092611 | 63 | 313 | 4.0 | 11.0 | 0.00 | 0.22 | 0.00 | 100 | |
| 20260505092111 | 63 | 299 | 5.0 | 11.0 | 0.00 | 0.22 | 0.00 | 100 | |
| 20260505091611 | 63 | 292 | 8.0 | 12.0 | 0.00 | 0.22 | 0.00 | 100 | |
| 20260505091111 | 63 | 292 | 4.0 | 13.0 | 0.00 | 0.22 | 0.00 | 100 | |
| 20260505090611 | 63 | 293 | 3.0 | 11.0 | 0.00 | 0.22 | 0.00 | 100 | |
| 20260505090112 | 63 | 303 | 6.0 | 13.0 | 0.00 | 0.22 | 0.00 | 100 | |
| 20260505085611 | 63 | 309 | 4.0 | 10.0 | 0.00 | 0.22 | 0.00 | 100 | |
| 20260505085111 | 63 | 298 | 6.0 | 12.0 | 0.00 | 0.22 | 0.00 | 100 | |
| 20260505084612 | 63 | 268 | 8.0 | 15.0 | 0.00 | 0.22 | 0.00 | 100 | |
| 20260505084111 | 63 | 282 | 4.0 | 12.0 | 0.00 | 0.22 | 0.00 | 100 | |
| 20260505083611 | 63 | 289 | 3.0 | 11.0 | 0.00 | 0.22 | 0.00 | 100 | |
| 20260505083112 | 63 | 306 | 5.0 | 13.0 | 0.00 | 0.24 | 0.00 | 100 | |
| 20260505082612 | 63 | 299 | 5.0 | 13.0 | 0.00 | 0.24 | 0.00 | 100 | |
| 20260505082111 | 64 | 296 | 3.0 | 11.0 | 0.00 | 0.24 | 0.00 | 100 | |
| 20260505081611 | 64 | 288 | 5.0 | 17.0 | 0.00 | 0.24 | 0.00 | 100 | |
| 20260505081111 | 64 | 323 | 5.0 | 13.0 | 0.00 | 0.24 | 0.00 | 100 | |
| 20260505080611 | 64 | 300 | 3.0 | 14.0 | 0.00 | 0.24 | 0.00 | 100 | |
| 20260505080111 | 64 | 299 | 14.0 | 14.0 | 0.00 | 0.24 | 0.00 | 100 | |
| 20260505075611 | 65 | 288 | 7.0 | 16.0 | 0.00 | 0.24 | 0.00 | 100 | |
| 20260505075111 | 64 | 277 | 9.0 | 12.0 | 0.00 | 0.24 | 0.00 | 100 | |
| 20260505074611 | 64 | 315 | 5.0 | 14.0 | 0.00 | 0.24 | 0.00 | 100 | |
| 20260505074111 | 65 | 299 | 8.0 | 14.0 | 0.00 | 0.24 | 0.00 | 100 | |
| 20260505073611 | 65 | 289 | 3.0 | 14.0 | 0.00 | 0.24 | 0.00 | 100 | |
| 20260505073111 | 65 | 299 | 7.0 | 12.0 | 0.00 | 0.24 | 0.00 | 100 | |
| 20260505072611 | 65 | 292 | 8.0 | 17.0 | 0.00 | 0.24 | 0.00 | 100 | |
| 20260505072119 | 65 | 291 | 7.0 | 18.0 | 0.00 | 0.24 | 0.00 | 100 | |
| 20260505071611 | 65 | 293 | 14.0 | 21.0 | 0.00 | 0.24 | 0.00 | 100 | |
| 20260505071111 | 65 | 299 | 6.0 | 19.0 | 0.00 | 0.24 | 0.00 | 100 | |
| 20260505070611 | 66 | 305 | 5.0 | 16.0 | 0.00 | 0.24 | 0.00 | 100 | |
| 20260505070111 | 65 | 302 | 7.0 | 16.0 | 0.00 | 0.24 | 0.00 | 100 | |
| 20260505065611 | 66 | 275 | 7.0 | 13.0 | 0.00 | 0.24 | 0.00 | 100 | |
| 20260505065111 | 65 | 275 | 9.0 | 17.0 | 0.00 | 0.24 | 0.00 | 100 | |
| 20260505064611 | 66 | 291 | 10.0 | 15.0 | 0.00 | 0.24 | 0.00 | 100 | |
| 20260505064111 | 66 | 298 | 6.0 | 11.0 | 0.00 | 0.24 | 0.00 | 100 | |
| 20260505063611 | 65 | 302 | 5.0 | 14.0 | 0.00 | 0.24 | 0.00 | 100 | |
| 20260505063111 | 65 | 286 | 7.0 | 16.0 | 0.00 | 0.24 | 0.00 | 100 | |
| 20260505062611 | 66 | 278 | 8.0 | 14.0 | 0.00 | 0.24 | 0.00 | 100 | |
| 20260505062112 | 66 | 296 | 7.0 | 16.0 | 0.00 | 0.24 | 0.00 | 100 | |
| 20260505061611 | 66 | 274 | 6.0 | 17.0 | 0.00 | 0.24 | 0.00 | 100 | |
| 20260505061112 | 66 | 292 | 11.0 | 14.0 | 0.00 | 0.24 | 0.00 | 100 | |
| 20260505060611 | 66 | 303 | 7.0 | 16.0 | 0.00 | 0.24 | 0.00 | 100 | |
| 20260505060111 | 67 | 299 | 9.0 | 18.0 | 0.00 | 0.24 | 0.00 | 100 | |
| 20260505055612 | 66 | 281 | 7.0 | 16.0 | 0.00 | 0.24 | 0.00 | 100 | |
| 20260505055112 | 67 | 295 | 7.0 | 18.0 | 0.00 | 0.24 | 0.00 | 100 | |
| 20260505054612 | 66 | 270 | 6.0 | 15.0 | 0.00 | 0.24 | 0.00 | 100 | |
| 20260505054112 | 66 | 291 | 8.0 | 15.0 | 0.00 | 0.24 | 0.00 | 100 | |
| 20260505053611 | 66 | 288 | 7.0 | 15.0 | 0.00 | 0.24 | 0.00 | 100 | |
| 20260505053112 | 66 | 284 | 3.0 | 13.0 | 0.00 | 0.25 | 0.00 | 100 | |
| 20260505052612 | 67 | 279 | 6.0 | 12.0 | 0.00 | 0.25 | 0.00 | 100 | |
| 20260505052112 | 66 | 315 | 5.0 | 14.0 | 0.00 | 0.25 | 0.00 | 100 | |
| 20260505051611 | 67 | 284 | 7.0 | 13.0 | 0.00 | 0.25 | 0.00 | 100 | |
| 20260505051112 | 67 | 288 | 6.0 | 12.0 | 0.00 | 0.25 | 0.00 | 100 | |
| 20260505050612 | 67 | 291 | 6.0 | 14.0 | 0.00 | 0.25 | 0.00 | 100 | |
| 20260505050112 | 67 | 271 | 6.0 | 12.0 | 0.00 | 0.25 | 0.00 | 100 | |
| 20260505041612 | 68 | 303 | 4.0 | 13.0 | 0.00 | 0.25 | 0.00 | 100 | |
| 20260505041112 | 67 | 305 | 9.0 | 9.0 | 0.00 | 0.25 | 0.00 | 100 | |
| 20260505040612 | 67 | 302 | 8.0 | 10.0 | 0.00 | 0.25 | 0.00 | 100 | |
| 20260505040112 | 67 | 329 | 8.0 | 11.0 | 0.00 | 0.25 | 0.00 | 100 | |
| 20260505035612 | 68 | 306 | 3.0 | 11.0 | 0.00 | 0.25 | 0.00 | 100 | |
| 20260505035112 | 68 | 286 | 6.0 | 8.0 | 0.00 | 0.25 | 0.00 | 100 | |
| 20260505034612 | 68 | 289 | 6.0 | 10.0 | 0.00 | 0.25 | 0.00 | 100 | |
| 20260505034112 | 68 | 277 | 7.0 | 10.0 | 0.00 | 0.25 | 0.00 | 100 | |
| 20260505033612 | 68 | 291 | 6.0 | 12.0 | 0.00 | 0.25 | 0.00 | 100 | |
| 20260505033112 | 69 | 310 | 5.0 | 13.0 | 0.00 | 0.25 | 0.00 | 100 | |
| 20260505032612 | 69 | 296 | 12.0 | 13.0 | 0.00 | 0.25 | 0.00 | 100 | |
| 20260505032112 | 68 | 281 | 9.0 | 13.0 | 0.00 | 0.25 | 0.00 | 100 | |
| 20260505031612 | 68 | 265 | 6.0 | 13.0 | 0.00 | 0.25 | 0.00 | 100 | |
| 20260505031112 | 68 | 289 | 12.0 | 15.0 | 0.00 | 0.25 | 0.00 | 100 | |
| 20260505030612 | 69 | 295 | 4.0 | 12.0 | 0.00 | 0.25 | 0.00 | 100 | |
| 20260505030112 | 69 | 309 | 2.0 | 12.0 | 0.00 | 0.25 | 0.00 | 100 | |
| 20260505025612 | 69 | 282 | 7.0 | 12.0 | 0.00 | 0.25 | 0.00 | 100 | |
| 20260505025112 | 69 | 296 | 8.0 | 12.0 | 0.00 | 0.25 | 0.00 | 100 | |
| 20260505024612 | 69 | 285 | 6.0 | 12.0 | 0.00 | 0.25 | 0.00 | 100 | |
| 20260505024112 | 69 | 296 | 8.0 | 13.0 | 0.00 | 0.25 | 0.00 | 100 | |
| 20260505023612 | 69 | 291 | 8.0 | 12.0 | 0.00 | 0.25 | 0.00 | 100 | |
| 20260505023112 | 69 | 299 | 4.0 | 11.0 | 0.00 | 0.25 | 0.00 | 100 | |
| 20260505022612 | 69 | 291 | 6.0 | 13.0 | 0.00 | 0.25 | 0.00 | 100 | |
| 20260505022112 | 69 | 293 | 11.0 | 11.0 | 0.00 | 0.25 | 0.00 | 100 | |
| 20260505021612 | 69 | 285 | 7.0 | 12.0 | 0.00 | 0.25 | 0.00 | 100 | |
| 20260505021112 | 69 | 300 | 6.0 | 11.0 | 0.00 | 0.25 | 0.00 | 100 | |
| 20260505020612 | 69 | 289 | 7.0 | 13.0 | 0.00 | 0.25 | 0.00 | 100 | |
| 20260505020112 | 70 | 293 | 9.0 | 12.0 | 0.00 | 0.25 | 0.00 | 100 | |
| 20260505015612 | 69 | 299 | 8.0 | 12.0 | 0.00 | 0.25 | 0.00 | 100 | |
| 20260505015112 | 71 | 282 | 8.0 | 12.0 | 0.00 | 0.25 | 0.00 | 100 | |
| 20260505014612 | 70 | 291 | 8.0 | 11.0 | 0.00 | 0.25 | 0.00 | 100 | |
| 20260505014112 | 70 | 288 | 5.0 | 13.0 | 0.00 | 0.25 | 0.00 | 100 | |
| 20260505013612 | 71 | 275 | 10.0 | 11.0 | 0.00 | 0.25 | 0.00 | 100 | |
| 20260505013112 | 71 | 302 | 8.0 | 12.0 | 0.00 | 0.25 | 0.00 | 100 | |
| 20260505012612 | 71 | 302 | 7.0 | 13.0 | 0.00 | 0.25 | 0.00 | 100 | |
| 20260505012112 | 71 | 296 | 9.0 | 13.0 | 0.00 | 0.25 | 0.00 | 100 | |
| 20260505011612 | 71 | 288 | 9.0 | 13.0 | 0.00 | 0.25 | 0.00 | 100 | |
| 20260505011112 | 72 | 299 | 5.0 | 13.0 | 0.00 | 0.25 | 0.00 | 100 | |
| 20260505010612 | 72 | 298 | 8.0 | 12.0 | 0.00 | 0.25 | 0.00 | 100 | |
| 20260505010112 | 72 | 275 | 4.0 | 11.0 | 0.00 | 0.25 | 0.00 | 100 | |
| 20260505005612 | 72 | 285 | 8.0 | 10.0 | 0.00 | 0.25 | 0.00 | 100 | |
| 20260505005112 | 72 | 305 | 6.0 | 13.0 | 0.00 | 0.25 | 0.00 | 100 | |
| 20260505004612 | 72 | 274 | 6.0 | 15.0 | 0.00 | 0.25 | 0.00 | 100 | |
| 20260505004112 | 73 | 289 | 8.0 | 14.0 | 0.00 | 0.25 | 0.00 | 100 | |
| 20260505003612 | 72 | 296 | 7.0 | 13.0 | 0.00 | 0.25 | 0.00 | 100 | |
| 20260505003112 | 73 | 300 | 8.0 | 12.0 | 0.00 | 0.25 | 0.00 | 100 | |
| 20260505002612 | 73 | 278 | 5.0 | 12.0 | 0.00 | 0.25 | 0.00 | 100 | |
| 20260505002112 | 73 | 300 | 4.0 | 13.0 | 0.00 | 0.25 | 0.00 | 100 | |
| 20260505001612 | 73 | 303 | 6.0 | 14.0 | 0.00 | 0.25 | 0.00 | 100 | |
| 20260505001112 | 74 | 275 | 6.0 | 11.0 | 0.00 | 0.25 | 0.00 | 100 | |
| 20260505000612 | 74 | 317 | 4.0 | 12.0 | 0.00 | 0.25 | 0.00 | 100 | |
| 20260505000112 | 74 | 289 | 8.0 | 15.0 | 0.00 | 0.25 | 0.00 | 100 | |
| 20260504235612 | 74 | 326 | 5.0 | 12.0 | 0.00 | 0.25 | 0.00 | 100 | |
| 20260504235112 | 75 | 298 | 5.0 | 11.0 | 0.00 | 0.25 | 0.00 | 100 | |
| 20260504234612 | 75 | 299 | 3.0 | 9.0 | 0.00 | 0.25 | 0.00 | 100 | |
| 20260504234112 | 75 | 300 | 4.0 | 13.0 | 0.00 | 0.25 | 0.00 | 100 | |
| 20260504233612 | 76 | 299 | 3.0 | 8.0 | 0.00 | 0.25 | 0.00 | 100 | |
| 20260504233112 | 75 | 281 | 6.0 | 9.0 | 0.00 | 0.25 | 0.00 | 100 | |
| 20260504232612 | 76 | 305 | 6.0 | 10.0 | 0.00 | 0.25 | 0.00 | 100 | |
| 20260504232112 | 76 | 298 | 6.0 | 14.0 | 0.00 | 0.25 | 0.00 | 100 | |
| 20260504231612 | 76 | 260 | 6.0 | 16.0 | 0.00 | 0.25 | 0.00 | 100 | |
| 20260504231112 | 76 | 306 | 6.0 | 16.0 | 0.00 | 0.25 | 0.00 | 100 | |
| 20260504230612 | 76 | 312 | 4.0 | 15.0 | 0.00 | 0.25 | 0.00 | 100 | |
| 20260504230112 | 78 | 313 | 8.0 | 17.0 | 0.00 | 0.25 | 0.00 | 100 | |
| 20260504225612 | 77 | 299 | 8.0 | 13.0 | 0.00 | 0.25 | 0.00 | 100 | |
| 20260504225112 | 78 | 292 | 9.0 | 15.0 | 0.00 | 0.25 | 0.00 | 100 | |
| 20260504224612 | 78 | 307 | 11.0 | 24.0 | 0.00 | 0.25 | 0.00 | 100 | |
| 20260504224112 | 77 | 282 | 14.0 | 24.0 | 0.00 | 0.25 | 0.00 | 100 | |
| 20260504223612 | 78 | 295 | 9.0 | 15.0 | 0.00 | 0.25 | 0.00 | 100 | |
| 20260504223112 | 78 | 309 | 3.0 | 13.0 | 0.00 | 0.25 | 0.00 | 100 | |
| 20260504222612 | 79 | 345 | 9.0 | 17.0 | 0.00 | 0.25 | 0.00 | 100 | |
| 20260504222112 | 81 | 306 | 6.0 | 11.0 | 0.00 | 0.25 | 0.00 | 100 | |
| 20260504221612 | 79 | 302 | 8.0 | 15.0 | 0.00 | 0.25 | 0.00 | 100 | |
| 20260504221112 | 79 | 300 | 6.0 | 15.0 | 0.00 | 0.25 | 0.00 | 100 | |
| 20260504220612 | 79 | 278 | 2.0 | 16.0 | 0.00 | 0.25 | 0.00 | 100 | |
| 20260504220112 | 79 | 338 | 4.0 | 18.0 | 0.00 | 0.25 | 0.00 | 100 | |
| 20260504215612 | 80 | 305 | 4.0 | 18.0 | 0.00 | 0.25 | 0.00 | 100 | |
| 20260504215112 | 79 | 320 | 9.0 | 19.0 | 0.00 | 0.25 | 0.00 | 100 | |
| 20260504214612 | 80 | 295 | 2.0 | 14.0 | 0.00 | 0.25 | 0.00 | 100 | |
| 20260504214112 | 80 | 279 | 7.0 | 16.0 | 0.00 | 0.25 | 0.00 | 100 | |
| 20260504213612 | 80 | 288 | 5.0 | 17.0 | 0.00 | 0.25 | 0.00 | 100 | |
| 20260504213112 | 80 | 323 | 4.0 | 17.0 | 0.00 | 0.25 | 0.00 | 100 | |
| 20260504212612 | 80 | 309 | 9.0 | 19.0 | 0.00 | 0.25 | 0.00 | 100 | |
| 20260504212112 | 79 | 302 | 7.0 | 18.0 | 0.00 | 0.25 | 0.00 | 100 | |
| 20260504211612 | 78 | 309 | 7.0 | 22.0 | 0.00 | 0.25 | 0.00 | 100 | |
| 20260504211112 | 79 | 299 | 9.0 | 18.0 | 0.00 | 0.25 | 0.00 | 100 | |
| 20260504210612 | 80 | 295 | 5.0 | 14.0 | 0.00 | 0.25 | 0.00 | 100 | |
| 20260504210112 | 80 | 306 | 6.0 | 14.0 | 0.00 | 0.25 | 0.00 | 100 | |
| 20260504205612 | 77 | 306 | 5.0 | 17.0 | 0.00 | 0.25 | 0.00 | 100 | |
| 20260504205112 | 79 | 305 | 6.0 | 16.0 | 0.00 | 0.25 | 0.00 | 100 | |
| 20260504204612 | 80 | 291 | 5.0 | 17.0 | 0.00 | 0.25 | 0.00 | 100 | |
| 20260504204112 | 79 | 319 | 8.0 | 18.0 | 0.00 | 0.25 | 0.00 | 100 | |
| 20260504203612 | 79 | 331 | 6.0 | 18.0 | 0.00 | 0.25 | 0.00 | 100 | |
| 20260504203112 | 79 | 295 | 6.0 | 14.0 | 0.00 | 0.25 | 0.00 | 100 | |
| 20260504202612 | 79 | 298 | 5.0 | 15.0 | 0.00 | 0.25 | 0.00 | 100 | |
| 20260504202112 | 78 | 315 | 3.0 | 19.0 | 0.00 | 0.25 | 0.00 | 100 | |
| 20260504201612 | 79 | 302 | 9.0 | 20.0 | 0.00 | 0.25 | 0.00 | 100 | |
| 20260504201112 | 79 | 326 | 1.0 | 17.0 | 0.00 | 0.25 | 0.00 | 100 | |
| 20260504200612 | 79 | 300 | 6.0 | 14.0 | 0.00 | 0.25 | 0.00 | 100 | |
| 20260504200112 | 79 | 306 | 7.0 | 17.0 | 0.00 | 0.25 | 0.00 | 100 | |
| 20260504195612 | 79 | 306 | 8.0 | 17.0 | 0.00 | 0.25 | 0.00 | 100 | |
| 20260504195112 | 79 | 265 | 9.0 | 20.0 | 0.00 | 0.25 | 0.00 | 100 | |
| 20260504194612 | 79 | 336 | 3.0 | 16.0 | 0.00 | 0.25 | 0.00 | 100 | |
| 20260504194112 | 79 | 307 | 3.0 | 16.0 | 0.00 | 0.25 | 0.00 | 100 | |
| 20260504193612 | 79 | 296 | 11.0 | 17.0 | 0.00 | 0.25 | 0.00 | 100 | |
| 20260504193112 | 78 | 302 | 2.0 | 18.0 | 0.00 | 0.25 | 0.00 | 100 | |
| 20260504192612 | 79 | 274 | 10.0 | 14.0 | 0.00 | 0.25 | 0.00 | 100 | |
| 20260504192112 | 78 | 307 | 6.0 | 17.0 | 0.00 | 0.25 | 0.00 | 100 | |
| 20260504191612 | 77 | 303 | 5.0 | 21.0 | 0.00 | 0.25 | 0.00 | 100 | |
| 20260504191112 | 77 | 306 | 5.0 | 21.0 | 0.00 | 0.25 | 0.00 | 100 | |
| 20260504190612 | 78 | 255 | 5.0 | 15.0 | 0.00 | 0.25 | 0.00 | 100 | |
| 20260504190112 | 77 | 278 | 6.0 | 14.0 | 0.00 | 0.25 | 0.00 | 100 | |
| 20260504185612 | 78 | 292 | 8.0 | 14.0 | 0.00 | 0.25 | 0.00 | 100 | |
| 20260504185112 | 77 | 295 | 6.0 | 19.0 | 0.00 | 0.25 | 0.00 | 100 | |
| 20260504184612 | 77 | 300 | 6.0 | 15.0 | 0.00 | 0.25 | 0.00 | 100 | |
| 20260504184112 | 77 | 300 | 3.0 | 18.0 | 0.00 | 0.25 | 0.00 | 100 | |
| 20260504183612 | 77 | 285 | 7.0 | 15.0 | 0.00 | 0.25 | 0.00 | 100 | |
| 20260504183112 | 77 | 306 | 7.0 | 16.0 | 0.00 | 0.25 | 0.00 | 100 | |
| 20260504182612 | 76 | 267 | 9.0 | 18.0 | 0.00 | 0.25 | 0.00 | 100 | |
| 20260504182112 | 74 | 292 | 8.0 | 21.0 | 0.00 | 0.25 | 0.00 | 100 | |
| 20260504181612 | 75 | 305 | 9.0 | 18.0 | 0.00 | 0.25 | 0.00 | 100 | |
| 20260504181112 | 76 | 281 | 8.0 | 12.0 | 0.00 | 0.25 | 0.00 | 100 | |
| 20260504180612 | 75 | 319 | 5.0 | 19.0 | 0.00 | 0.25 | 0.00 | 100 | |
| 20260504180112 | 74 | 299 | 9.0 | 23.0 | 0.00 | 0.25 | 0.00 | 100 | |
| 20260504175612 | 75 | 302 | 6.0 | 15.0 | 0.00 | 0.25 | 0.00 | 100 | |
| 20260504175112 | 74 | 270 | 6.0 | 19.0 | 0.00 | 0.25 | 0.00 | 100 | |
| 20260504174612 | 73 | 303 | 11.0 | 22.0 | 0.00 | 0.25 | 0.00 | 100 | |
| 20260504174112 | 73 | 288 | 13.0 | 22.0 | 0.00 | 0.25 | 0.00 | 100 | |
| 20260504173612 | 74 | 278 | 5.0 | 17.0 | 0.00 | 0.25 | 0.00 | 100 | |
| 20260504173112 | 74 | 295 | 3.0 | 16.0 | 0.00 | 0.25 | 0.00 | 100 | |
| 20260504172612 | 73 | 303 | 8.0 | 23.0 | 0.00 | 0.25 | 0.00 | 100 | |
| 20260504172112 | 74 | 279 | 12.0 | 22.0 | 0.00 | 0.25 | 0.00 | 100 | |
| 20260504171612 | 72 | 253 | 12.0 | 18.0 | 0.00 | 0.25 | 0.00 | 100 | |
| 20260504171112 | 72 | 272 | 10.0 | 23.0 | 0.00 | 0.25 | 0.00 | 100 | |
| 20260504170612 | 72 | 275 | 12.0 | 20.0 | 0.00 | 0.25 | 0.00 | 100 | |
| 20260504170112 | 72 | 289 | 11.0 | 18.0 | 0.00 | 0.25 | 0.00 | 100 | |
| 20260504160112 | 67 | 279 | 11.0 | 17.0 | 0.00 | 0.25 | 0.00 | 100 | |
| 20260504151112 | 59 | 309 | 12.0 | 20.0 | 0.00 | 0.25 | 0.00 | 100 | |
| 20260504150612 | 61 | 292 | 11.0 | 21.0 | 0.00 | 0.25 | 0.00 | 100 | |
| 20260504150112 | 61 | 271 | 9.0 | 21.0 | 0.00 | 0.25 | 0.00 | 100 | |
| 20260504141112 | 56 | 284 | 10.0 | 15.0 | 0.00 | 0.25 | 0.00 | 100 | |
| 20260504140612 | 55 | 291 | 13.0 | 16.0 | 0.00 | 0.25 | 0.00 | 100 | |
| 20260504140112 | 56 | 284 | 11.0 | 11.0 | 0.00 | 0.25 | 0.00 | 100 | |
| 20260504130612 | 58 | 315 | 17.0 | 22.0 | 0.00 | 0.25 | 0.00 | 100 | |
| 20260504130112 | 55 | 315 | 7.0 | 15.0 | 0.00 | 0.25 | 0.00 | 100 |